QPF
0.00 0.00 0.00 0.00 0.00 0.00 0.00 0.00 0.00 0.00 0.00 0.00 0.00 0.00 0.00 0.00 0.00 0.00 0.00 0.00 0.00 0.00 0.00 0.00 0.00 0.00 0.00 0.00 0.00 0.00 0.00 0.00 0.00 0.00 0.00 0.00 0.00 0.00 0.00 0.00 0.00 0.00 0.00 0.00
0.00 0.00 0.00 0.00 0.00 0.00 0.00 0.00 0.00 0.00 0.00 0.00 0.00 0.00 0.00 0.00 0.00 0.00 0.00 0.00 0.00 0.00 0.00 0.00 0.00 0.00 0.00 0.00 0.00 0.00 0.00 0.00 0.00 0.00 0.00 0.00 0.00 0.00 0.00 0.00 0.00 0.00 0.00 0.00
0.00 0.00 0.00 0.00 0.00 0.00 0.00 0.00 0.00 0.00 0.00 0.00 0.00 0.00 0.00 0.00 0.00 0.00 0.00 0.00 0.00 0.00 0.00 0.00 0.00 0.00 0.00 0.00 0.00 0.00 0.00 0.00 0.00 0.00 0.00 0.00 0.00 0.00 0.00 0.00 0.00 0.00 0.00 0.00
0.00 0.00 0.00 0.00 0.00 0.00 0.00 0.00 0.00 0.00 0.00 0.00 0.00 0.00 0.00 0.00 0.00 0.00 0.00 0.00 0.00 0.00 0.00 0.00 0.00 0.00 0.00 0.00 0.00 0.00 0.00 0.00 0.00 0.00 0.00 0.00 0.00 0.00 0.00 0.00 0.00 0.00 0.00 0.00
0.00 0.00 0.00 0.00 0.00 0.00 0.00 0.00 0.00 0.00 0.00 0.00 0.00 0.00 0.00 0.00 0.00 0.00 0.00 0.00 0.00 0.00 0.00 0.00 0.00 0.00 0.00 0.00 0.00 0.00 0.00 0.00 0.00 0.00 0.00 0.00 0.00 0.00 0.00 0.00 0.00 0.00 0.00 0.00
0.00 0.00 0.00 0.00 0.00 0.00 0.00 0.00 0.00 0.00 0.00 0.00 0.00 0.00 0.00 0.00 0.00 0.00 0.00 0.00 0.00 0.00 0.00 0.00 0.00 0.00 0.00 0.00 0.00 0.00 0.00 0.00 0.00 0.00 0.00 0.00 0.00 0.00 0.00 0.00 0.00 0.00 0.00 0.00
0.00 0.00 0.00 0.00 0.00 0.00 0.00 0.00 0.00 0.00 0.00 0.00 0.00 0.00 0.00 0.00 0.00 0.00 0.00 0.00 0.00 0.00 0.00 0.00 0.00 0.00 0.00 0.00 0.00 0.00 0.00 0.00 0.00 0.00 0.00 0.00 0.00 0.00 0.00 0.00 0.00 0.00 0.00 0.00
0.00 0.00 0.00 0.00 0.00 0.00 0.00 0.00 0.00 0.00 0.00 0.00 0.00 0.00 0.00 0.00 0.00 0.00 0.00 0.00 0.00 0.00 0.00 0.00 0.00 0.00 0.00 0.00 0.00 0.00 0.00 0.00 0.00 0.00 0.00 0.00 0.00 0.00 0.00 0.00 0.00 0.00 0.00 0.00
0.00 0.00 0.00 0.00 0.00 0.00 0.00 0.00 0.00 0.00 0.00 0.00 0.00 0.00 0.00 0.00 0.00 0.00 0.00 0.00 0.00 0.00 0.00 0.00 0.00 0.00 0.00 0.00 0.00 0.00 0.00 0.00 0.00 0.00 0.00 0.00 0.00 0.00 0.00 0.00 0.00 0.00 0.00 0.00
0.00 0.00 0.00 0.00 0.00 0.00 0.00 0.00 0.00 0.00 0.00 0.00 0.00 0.00 0.00 0.00 0.00 0.00 0.00 0.00 0.00 0.00 0.00 0.00 0.00 0.00 0.00 0.00 0.00 0.00 0.00 0.00 0.00 0.00 0.00 0.00 0.00 0.00 0.00 0.00 0.00 0.00 0.00 0.00
0.00 0.00 0.00 0.00 0.00 0.00 0.00 0.00 0.00 0.00 0.00 0.00 0.00 0.00 0.00 0.00 0.00 0.00 0.00 0.00 0.00 0.00 0.00 0.00 0.00 0.00 0.00 0.00 0.00 0.00 0.00 0.00 0.00 0.00 0.00 0.00 0.00 0.00 0.00 0.00 0.00 0.00 0.00 0.00
0.00 0.00 0.00 0.00 0.00 0.00 0.00 0.00 0.00 0.00 0.00 0.00 0.00 0.00 0.00 0.00 0.00 0.00 0.00 0.00 0.00 0.00 0.00 0.00 0.00 0.00 0.00 0.00 0.00 0.00 0.00 0.00 0.00 0.00 0.00 0.00 0.00 0.00 0.00 0.00 0.00 0.00 0.00 0.00
0.00 0.00 0.00 0.00 0.00 0.00 0.00 0.00 0.00 0.00 0.00 0.00 0.00 0.00 0.00 0.00 0.00 0.00 0.00 0.00 0.00 0.00 0.00 0.00 0.00 0.00 0.00 0.00 0.00 0.00 0.00 0.00 0.00 0.00 0.00 0.00 0.00 0.00 0.00 0.00 0.00 0.00 0.00 0.00
0.00 0.00 0.00 0.00 0.00 0.00 0.00 0.00 0.00 0.00 0.00 0.00 0.00 0.00 0.00 0.00 0.00 0.00 0.00 0.00 0.00 0.00 0.00 0.00 0.00 0.00 0.00 0.00 0.00 0.00 0.00 0.00 0.00 0.00 0.00 0.00 0.00 0.00 0.00 0.00 0.00 0.00 0.00 0.00
0.00 0.00 0.00 0.00 0.00 0.00 0.00 0.00 0.00 0.00 0.00 0.00 0.00 0.00 0.00 0.00 0.00 0.00 0.00 0.00 0.00 0.00 0.00 0.00 0.00 0.00 0.00 0.00 0.00 0.00 0.00 0.00 0.00 0.00 0.00 0.00 0.00 0.00 0.00 0.00 0.00 0.00 0.00 0.00
0.00 0.00 0.00 0.00 0.00 0.00 0.00 0.00 0.00 0.00 0.00 0.00 0.00 0.00 0.00 0.00 0.00 0.00 0.00 0.00 0.00 0.00 0.00 0.00 0.00 0.00 0.00 0.00 0.00 0.00 0.00 0.00 0.00 0.00 0.00 0.00 0.00 0.00 0.00 0.00 0.00 0.00 0.00 0.00
0.00 0.00 0.00 0.00 0.00 0.00 0.00 0.00 0.00 0.00 0.00 0.00 0.00 0.00 0.00 0.00 0.00 0.00 0.00 0.00 0.00 0.00 0.00 0.00 0.00 0.00 0.00 0.00 0.00 0.00 0.00 0.00 0.00 0.00 0.00 0.00 0.00 0.00 0.00 0.00 0.00 0.00 0.00 0.00
0.00 0.00 0.00 0.00 0.00 0.00 0.00 0.00 0.00 0.00 0.00 0.00 0.00 0.00 0.00 0.00 0.00 0.00 0.00 0.00 0.00 0.00 0.00 0.00 0.00 0.00 0.00 0.00 0.00 0.00 0.00 0.00 0.00 0.00 0.00 0.00 0.00 0.00 0.00 0.00 0.00 0.00 0.00 0.00
0.00 0.00 0.00 0.00 0.00 0.00 0.00 0.00 0.00 0.00 0.00 0.00 0.00 0.00 0.00 0.00 0.00 0.00 0.00 0.00 0.00 0.00 0.00 0.00 0.00 0.00 0.00 0.00 0.00 0.00 0.00 0.00 0.00 0.00 0.00 0.00 0.00 0.00 0.00 0.00 0.00 0.00 0.00 0.00
0.00 0.00 0.00 0.00 0.00 0.00 0.00 0.00 0.00 0.00 0.00 0.00 0.00 0.00 0.00 0.00 0.00 0.00 0.00 0.00 0.00 0.00 0.00 0.00 0.00 0.00 0.00 0.00 0.00 0.00 0.00 0.00 0.00 0.00 0.00 0.00 0.00 0.00 0.00 0.00 0.00 0.00 0.00 0.00
0.00 0.00 0.00 0.00 0.00 0.00 0.00 0.00 0.00 0.00 0.00 0.00 0.00 0.00 0.00 0.00 0.00 0.00 0.00 0.00 0.00 0.00 0.00 0.00 0.00 0.00 0.00 0.00 0.00 0.00 0.00 0.00 0.00 0.00 0.00 0.00 0.00 0.00 0.00 0.00 0.00 0.00 0.00 0.00
0.00 0.00 0.00 0.00 0.00 0.00 0.00 0.00 0.00 0.00 0.00 0.00 0.00 0.00 0.00 0.00 0.00 0.00 0.00 0.00 0.00 0.00 0.00 0.00 0.00 0.00 0.00 0.00 0.00 0.00 0.00 0.00 0.00 0.00 0.00 0.00 0.00 0.00 0.00 0.00 0.00 0.00 0.00 0.00
0.00 0.00 0.00 0.00 0.00 0.00 0.00 0.00 0.00 0.00 0.00 0.00 0.00 0.00 0.00 0.00 0.00 0.00 0.00 0.00 0.00 0.00 0.00 0.00 0.00 0.00 0.00 0.00 0.00 0.00 0.00 0.00 0.00 0.00 0.00 0.00 0.00 0.00 0.00 0.00 0.00 0.00 0.00 0.00
0.00 0.00 0.00 0.00 0.00 0.00 0.00 0.00 0.00 0.00 0.00 0.00 0.00 0.00 0.00 0.00 0.00 0.00 0.00 0.00 0.00 0.00 0.00 0.00 0.00 0.00 0.00 0.00 0.00 0.00 0.00 0.00 0.00 0.00 0.00 0.00 0.00 0.00 0.00 0.00 0.00 0.00 0.00 0.00
0.00 0.00 0.00 0.00 0.00 0.00 0.00 0.00 0.00 0.00 0.00 0.00 0.00 0.00 0.00 0.00 0.00 0.00 0.00 0.00 0.00 0.00 0.00 0.00 0.00 0.00 0.00 0.00 0.00 0.00 0.00 0.00 0.00 0.00 0.00 0.00 0.00 0.00 0.00 0.00 0.00 0.00 0.00 0.00
0.00 0.00 0.00 0.00 0.00 0.00 0.00 0.00 0.00 0.00 0.00 0.00 0.00 0.00 0.00 0.00 0.00 0.00 0.00 0.00 0.00 0.00 0.00 0.00 0.00 0.00 0.00 0.00 0.00 0.00 0.00 0.00 0.00 0.00 0.00 0.00 0.00 0.00 0.00 0.00 0.00 0.00 0.00 0.00
MSLP
1015.27 1014.88 1014.23 1014.93 1015.34 1015.21 1014.90 1014.41 1013.97 1013.81 1015.09 1015.31 1013.86 1012.85 1012.32 1012.31 1012.86 1013.93 1014.34 1014.23 1014.69 1015.42 1016.38 1017.29 1018.49 1019.45 1020.22 1020.82 1021.55 1022.06 1022.59 1023.20 1023.80 1024.37 1024.65 1024.87 1025.09 1025.44 1025.76 1026.01 1026.13 1026.29 1026.45 1026.69
1015.22 1014.66 1015.67 1016.05 1016.07 1015.86 1015.31 1014.79 1013.98 1014.20 1015.15 1015.26 1013.40 1012.00 1011.45 1011.64 1011.72 1012.16 1013.33 1013.51 1013.80 1014.58 1015.39 1016.36 1017.56 1018.73 1019.49 1020.12 1020.76 1021.44 1021.99 1022.54 1023.08 1023.53 1023.99 1024.29 1024.46 1024.61 1024.89 1025.29 1025.57 1025.85 1026.13 1026.35
1015.10 1015.96 1016.58 1016.62 1016.27 1016.08 1015.27 1015.55 1015.38 1015.49 1014.87 1013.75 1013.29 1010.94 1010.78 1011.60 1012.07 1012.55 1012.68 1012.93 1013.08 1013.70 1014.55 1015.49 1016.79 1017.68 1018.71 1019.21 1019.86 1020.51 1021.01 1021.75 1022.33 1022.89 1023.34 1023.82 1024.06 1024.34 1024.48 1024.69 1024.94 1025.18 1025.51 1025.80
1015.69 1016.69 1016.89 1016.87 1016.68 1016.83 1016.20 1016.71 1016.55 1015.95 1015.13 1013.45 1013.23 1010.85 1009.88 1010.35 1010.99 1011.76 1012.23 1012.75 1012.90 1013.31 1014.18 1014.79 1015.80 1016.77 1017.59 1018.27 1019.13 1019.72 1020.43 1020.85 1021.44 1022.17 1022.83 1023.21 1023.41 1023.64 1023.94 1024.08 1024.23 1024.47 1024.78 1025.15
1016.65 1016.89 1017.23 1017.26 1017.58 1017.70 1017.17 1017.37 1016.90 1016.20 1015.15 1014.01 1012.72 1011.70 1009.61 1009.94 1010.35 1010.92 1011.59 1012.05 1012.72 1013.24 1013.69 1014.34 1014.92 1015.69 1016.62 1017.33 1018.06 1018.73 1019.22 1019.86 1020.50 1021.05 1021.55 1022.05 1022.54 1022.85 1023.09 1023.32 1023.63 1023.93 1024.11 1024.43
1016.78 1017.81 1017.97 1018.09 1018.26 1018.20 1017.94 1017.24 1016.23 1015.88 1014.78 1013.22 1012.68 1011.85 1008.85 1009.29 1010.20 1010.71 1011.46 1012.02 1012.53 1012.92 1013.44 1013.97 1014.45 1015.14 1015.71 1016.63 1017.31 1017.84 1018.33 1018.83 1019.55 1019.95 1020.54 1021.07 1021.36 1021.91 1022.16 1022.49 1022.98 1023.42 1023.70 1023.85
1016.72 1017.45 1018.53 1018.88 1018.28 1018.17 1017.73 1016.37 1015.04 1014.46 1013.60 1012.64 1012.88 1011.80 1009.55 1009.80 1010.44 1011.11 1011.61 1011.94 1012.47 1012.86 1013.24 1013.65 1014.17 1014.61 1015.07 1015.72 1016.38 1017.11 1017.68 1018.01 1018.62 1019.13 1019.74 1020.33 1020.89 1021.11 1021.33 1021.58 1021.95 1022.41 1022.79 1023.09
1015.53 1017.34 1018.32 1019.01 1018.80 1018.37 1017.77 1017.23 1016.09 1015.30 1014.03 1013.22 1012.95 1011.32 1009.71 1010.26 1010.89 1011.30 1011.86 1012.18 1012.51 1012.80 1013.00 1013.38 1013.78 1014.19 1014.54 1015.02 1015.51 1016.14 1016.73 1017.21 1017.63 1018.15 1018.73 1019.39 1019.97 1020.46 1020.75 1020.96 1021.27 1021.57 1021.78 1022.02
1015.17 1016.92 1018.75 1019.30 1019.45 1019.33 1017.98 1017.24 1017.45 1016.22 1015.24 1014.06 1011.70 1010.21 1009.56 1010.25 1010.50 1011.17 1011.64 1012.09 1012.38 1012.50 1012.76 1013.06 1013.38 1013.81 1014.11 1014.42 1014.72 1015.32 1015.78 1016.32 1016.90 1017.28 1017.76 1018.30 1019.02 1019.50 1019.58 1019.96 1020.35 1020.65 1020.96 1021.26
1015.17 1016.43 1018.39 1019.48 1019.82 1019.60 1018.84 1018.32 1017.54 1016.36 1015.24 1013.62 1011.15 1010.33 1009.53 1009.73 1010.08 1010.82 1011.27 1011.73 1012.03 1012.18 1012.47 1012.71 1012.92 1013.21 1013.40 1013.69 1014.09 1014.53 1014.99 1015.41 1015.95 1016.53 1017.02 1017.45 1017.74 1018.20 1018.74 1019.13 1019.43 1019.79 1020.09 1020.61
1015.76 1016.40 1018.53 1019.30 1019.18 1018.61 1018.93 1017.97 1017.64 1017.10 1016.08 1014.70 1012.71 1010.14 1009.65 1009.66 1010.07 1010.53 1010.75 1011.09 1011.46 1011.70 1011.99 1012.17 1012.54 1012.78 1012.93 1013.34 1013.70 1014.10 1014.44 1014.70 1015.06 1015.48 1015.94 1016.28 1016.73 1017.30 1017.80 1018.22 1018.48 1018.82 1019.34 1019.69
1016.36 1016.26 1016.87 1017.84 1018.92 1019.14 1018.65 1017.82 1017.32 1016.80 1016.30 1015.62 1014.41 1011.57 1010.07 1010.11 1010.37 1010.85 1011.04 1011.09 1011.11 1011.48 1011.72 1011.93 1012.03 1011.89 1012.41 1012.59 1013.01 1013.43 1013.79 1014.08 1014.34 1014.80 1015.22 1015.74 1016.30 1016.68 1017.07 1017.42 1017.96 1018.32 1018.47 1018.90
1016.66 1016.36 1016.30 1017.49 1018.69 1018.94 1018.39 1017.71 1017.49 1017.28 1017.05 1015.85 1014.48 1011.15 1010.34 1010.56 1010.72 1010.51 1010.57 1010.83 1010.84 1010.98 1011.17 1011.25 1011.11 1011.09 1011.58 1012.04 1012.42 1012.74 1013.09 1013.46 1013.83 1014.18 1014.49 1014.93 1015.47 1015.97 1016.16 1016.41 1016.97 1017.47 1017.79 1018.07
1016.89 1015.99 1015.36 1015.48 1016.18 1016.75 1017.33 1017.29 1017.39 1016.98 1016.34 1015.20 1013.33 1011.09 1010.26 1010.22 1010.10 1010.08 1010.02 1010.14 1010.27 1010.35 1010.48 1010.47 1010.72 1010.99 1011.29 1011.59 1011.93 1012.22 1012.63 1013.05 1013.53 1014.00 1014.17 1014.43 1014.73 1015.14 1015.59 1015.83 1016.05 1016.29 1016.63 1017.05
1016.73 1015.84 1015.32 1015.27 1015.72 1016.18 1016.07 1016.18 1016.52 1016.34 1015.57 1014.90 1012.16 1011.82 1010.56 1010.32 1010.18 1010.19 1010.19 1010.26 1010.19 1010.18 1010.21 1010.30 1010.47 1010.61 1010.88 1011.27 1011.62 1012.00 1012.42 1012.83 1013.17 1013.58 1013.82 1013.98 1014.37 1014.82 1014.95 1015.49 1015.71 1015.93 1015.97 1016.14
1016.68 1015.96 1015.85 1015.38 1015.60 1015.91 1015.38 1015.21 1015.09 1014.94 1014.86 1014.16 1013.13 1011.70 1010.88 1010.66 1010.32 1010.04 1010.06 1010.10 1010.04 1010.02 1010.04 1009.97 1010.14 1010.51 1010.85 1011.17 1011.56 1011.94 1012.25 1012.59 1012.97 1013.22 1013.39 1013.56 1013.75 1014.20 1014.73 1014.91 1015.34 1015.50 1015.52 1015.76
1016.18 1016.00 1016.04 1015.25 1015.77 1015.93 1015.18 1012.95 1013.21 1013.33 1012.90 1012.76 1012.44 1010.65 1010.26 1010.34 1010.32 1010.31 1010.33 1010.41 1010.20 1009.96 1009.85 1009.97 1010.05 1010.44 1010.68 1011.05 1011.42 1011.66 1011.89 1012.29 1012.72 1012.90 1012.99 1013.29 1013.46 1013.67 1013.98 1014.09 1014.45 1014.65 1014.87 1015.08
1015.53 1015.90 1016.28 1015.90 1015.97 1014.69 1012.30 1012.61 1012.65 1012.59 1011.99 1011.73 1011.13 1010.48 1010.47 1010.62 1010.33 1010.27 1010.21 1010.31 1010.15 1009.98 1009.99 1010.00 1010.27 1010.58 1010.85 1011.07 1011.35 1011.62 1012.10 1012.38 1012.63 1012.77 1012.78 1012.98 1013.28 1013.36 1013.63 1013.94 1013.94 1014.01 1014.07 1014.13
1015.56 1015.97 1016.55 1016.21 1015.15 1013.09 1012.54 1011.46 1012.16 1011.83 1010.28 1009.86 1009.97 1009.89 1009.89 1010.05 1010.53 1009.65 1009.51 1010.06 1010.30 1010.31 1010.26 1010.24 1010.29 1010.61 1010.97 1011.24 1011.35 1011.57 1011.73 1011.96 1012.17 1012.25 1012.42 1012.44 1012.67 1013.10 1013.13 1013.15 1013.26 1013.34 1013.36 1013.24
1016.31 1016.32 1016.14 1016.15 1014.95 1012.81 1011.13 1011.55 1011.59 1011.42 1009.67 1008.13 1008.41 1008.84 1009.29 1010.02 1009.89 1009.27 1009.45 1009.84 1009.98 1010.05 1010.26 1010.39 1010.37 1010.39 1010.75 1011.00 1011.26 1011.35 1011.22 1011.28 1011.44 1011.60 1011.83 1012.03 1012.31 1012.19 1012.52 1012.75 1012.80 1012.74 1012.66 1012.60
1015.90 1016.13 1015.52 1015.40 1013.98 1011.57 1010.78 1011.36 1011.64 1010.72 1008.33 1007.66 1008.04 1008.39 1008.94 1009.43 1009.13 1008.92 1009.33 1009.45 1009.56 1009.66 1009.74 1009.95 1010.20 1010.11 1010.01 1010.36 1010.84 1010.91 1010.72 1010.57 1010.64 1010.93 1011.21 1011.59 1011.88 1012.24 1012.24 1012.19 1012.23 1012.32 1012.49 1012.45
1012.89 1013.90 1014.14 1014.24 1012.99 1010.73 1009.78 1011.29 1010.34 1007.93 1007.73 1007.85 1008.09 1008.22 1008.60 1008.71 1008.80 1008.90 1008.90 1008.91 1008.96 1009.05 1009.22 1009.46 1009.60 1009.58 1009.73 1009.86 1010.34 1010.23 1010.04 1009.91 1010.13 1010.37 1010.50 1010.58 1010.82 1011.19 1011.39 1011.59 1011.65 1011.78 1011.70 1011.57
1010.71 1009.89 1010.47 1010.74 1009.19 1008.86 1008.57 1007.83 1007.90 1007.90 1007.81 1007.74 1008.11 1008.36 1008.60 1008.50 1008.47 1008.54 1008.41 1008.32 1008.26 1008.30 1008.33 1008.51 1008.69 1008.80 1008.93 1009.16 1009.57 1009.70 1009.23 1009.49 1009.79 1010.13 1010.43 1010.41 1010.25 1010.30 1010.61 1010.90 1011.06 1011.21 1011.16 1011.12
1008.98 1008.77 1008.61 1008.71 1007.61 1008.09 1008.34 1008.20 1007.95 1007.86 1007.74 1007.69 1008.00 1008.17 1008.28 1008.07 1008.02 1007.85 1007.69 1007.66 1007.63 1007.72 1007.61 1007.69 1007.82 1007.85 1007.97 1008.09 1008.24 1008.48 1008.85 1009.09 1009.40 1009.68 1009.43 1009.63 1009.70 1009.75 1009.94 1010.05 1010.18 1010.17 1010.43 1010.19
1007.05 1007.41 1007.79 1006.97 1007.07 1007.18 1007.59 1007.84 1007.85 1007.53 1007.43 1007.61 1007.74 1007.75 1007.64 1007.61 1007.30 1007.29 1007.06 1006.92 1006.93 1006.94 1006.94 1006.80 1006.75 1007.02 1007.10 1007.15 1007.45 1007.73 1008.00 1008.38 1008.88 1008.93 1009.00 1009.08 1009.33 1009.53 1009.62 1009.64 1009.69 1009.70 1009.32 1009.53
1006.76 1006.46 1006.72 1005.18 1006.19 1006.14 1006.00 1006.13 1006.32 1006.59 1006.89 1007.03 1007.00 1006.81 1006.78 1006.92 1006.50 1006.71 1006.50 1006.42 1006.37 1006.23 1006.35 1006.17 1006.10 1006.23 1006.31 1006.27 1006.53 1006.88 1007.04 1007.49 1007.96 1008.36 1008.51 1008.82 1009.05 1009.10 1009.37 1009.44 1009.21 1009.06 1008.94 1008.81
Thickness
5740 5733 5735 5732 5730 5729 5729 5730 5733 5748 5736 5724 5740 5748 5757 5764 5759 5742 5743 5749 5746 5740 5737 5730 5720 5712 5704 5698 5690 5684 5678 5670 5662 5655 5651 5646 5641 5636 5631 5626 5623 5619 5615 5611
5733 5733 5730 5728 5725 5723 5728 5729 5740 5743 5732 5723 5741 5748 5763 5762 5764 5764 5749 5751 5752 5746 5741 5735 5725 5715 5708 5701 5695 5687 5681 5674 5667 5661 5654 5649 5645 5641 5635 5630 5625 5620 5615 5610
5730 5726 5725 5722 5725 5722 5734 5723 5724 5717 5730 5745 5735 5757 5760 5755 5753 5751 5754 5756 5758 5751 5744 5738 5727 5720 5711 5706 5699 5692 5687 5678 5671 5664 5658 5651 5646 5641 5637 5632 5627 5622 5617 5611
5732 5726 5722 5721 5722 5721 5720 5718 5715 5716 5719 5729 5738 5739 5763 5764 5759 5753 5752 5748 5751 5751 5745 5741 5731 5723 5716 5710 5702 5695 5687 5681 5675 5665 5658 5652 5648 5644 5639 5635 5630 5625 5619 5613
5720 5722 5721 5719 5716 5717 5722 5714 5713 5714 5717 5723 5732 5728 5762 5765 5755 5757 5756 5754 5749 5747 5745 5738 5734 5728 5720 5714 5705 5698 5692 5684 5677 5671 5665 5658 5651 5646 5642 5637 5632 5626 5621 5615
5725 5723 5721 5718 5717 5715 5716 5715 5724 5718 5722 5722 5725 5727 5764 5761 5756 5757 5755 5751 5748 5745 5742 5738 5735 5728 5722 5714 5706 5699 5692 5686 5677 5673 5666 5658 5655 5647 5643 5638 5631 5624 5619 5615
5722 5721 5715 5714 5715 5718 5720 5728 5729 5727 5726 5729 5721 5722 5753 5762 5758 5753 5749 5749 5746 5743 5738 5734 5728 5724 5720 5714 5707 5698 5691 5685 5679 5673 5665 5657 5650 5645 5641 5637 5632 5626 5619 5613
5727 5714 5713 5711 5712 5712 5716 5714 5715 5691 5710 5718 5713 5714 5751 5757 5754 5752 5747 5745 5742 5738 5737 5732 5728 5724 5720 5715 5709 5702 5693 5686 5682 5675 5667 5658 5650 5643 5638 5633 5628 5623 5619 5614
5729 5718 5708 5706 5707 5706 5714 5717 5710 5707 5708 5702 5735 5750 5762 5754 5752 5747 5743 5740 5736 5737 5734 5730 5727 5722 5718 5714 5711 5703 5696 5689 5681 5676 5669 5661 5651 5643 5640 5633 5627 5621 5616 5610
5739 5721 5709 5702 5703 5703 5706 5709 5708 5713 5689 5695 5738 5732 5737 5747 5747 5744 5741 5737 5736 5737 5733 5729 5726 5721 5719 5716 5710 5705 5698 5691 5684 5676 5669 5662 5656 5649 5640 5633 5627 5620 5614 5607
5736 5726 5698 5698 5702 5713 5702 5706 5704 5703 5702 5694 5699 5730 5756 5750 5748 5742 5743 5741 5738 5736 5732 5730 5724 5721 5718 5712 5706 5700 5695 5690 5684 5678 5671 5665 5658 5649 5642 5634 5628 5622 5614 5608
5728 5727 5716 5712 5700 5699 5703 5710 5711 5697 5694 5695 5689 5706 5754 5750 5745 5738 5735 5737 5738 5734 5729 5726 5724 5724 5715 5711 5705 5699 5694 5689 5684 5677 5670 5662 5654 5648 5642 5635 5625 5619 5614 5607
5722 5718 5709 5698 5693 5693 5695 5705 5705 5701 5692 5683 5682 5718 5748 5743 5736 5741 5736 5734 5735 5732 5729 5726 5726 5724 5717 5710 5704 5699 5693 5688 5681 5676 5670 5662 5654 5646 5642 5636 5629 5620 5614 5607
5718 5722 5721 5715 5714 5715 5695 5696 5695 5699 5688 5692 5703 5727 5737 5739 5737 5740 5740 5739 5736 5732 5728 5727 5721 5716 5712 5707 5701 5697 5691 5685 5677 5670 5665 5659 5653 5645 5638 5633 5629 5624 5617 5609
5715 5709 5719 5719 5714 5707 5710 5708 5696 5688 5700 5691 5721 5715 5727 5734 5733 5732 5734 5731 5728 5726 5724 5721 5717 5714 5710 5704 5698 5693 5686 5679 5673 5665 5660 5655 5649 5641 5636 5628 5623 5619 5615 5609
5704 5704 5702 5701 5706 5700 5700 5707 5706 5705 5698 5698 5703 5711 5729 5731 5733 5731 5728 5725 5721 5720 5719 5719 5715 5708 5703 5698 5692 5686 5680 5675 5668 5662 5657 5653 5647 5639 5630 5626 5619 5614 5611 5605
5696 5696 5689 5694 5690 5683 5684 5721 5717 5712 5716 5710 5694 5720 5732 5724 5720 5719 5718 5714 5714 5716 5716 5711 5708 5702 5698 5693 5687 5681 5676 5670 5662 5657 5653 5647 5643 5638 5632 5624 5617 5612 5608 5603
5694 5690 5683 5678 5677 5666 5726 5721 5718 5713 5715 5716 5714 5719 5718 5713 5718 5717 5715 5709 5710 5710 5707 5705 5699 5693 5688 5684 5679 5674 5665 5659 5653 5648 5645 5640 5634 5630 5625 5619 5615 5610 5605 5601
5696 5686 5661 5661 5669 5701 5707 5723 5705 5698 5722 5726 5715 5717 5717 5714 5701 5711 5716 5708 5701 5698 5696 5694 5692 5686 5679 5673 5670 5664 5660 5654 5648 5644 5639 5635 5629 5622 5619 5616 5612 5608 5604 5601
5675 5675 5670 5658 5650 5665 5714 5705 5708 5705 5694 5735 5730 5718 5712 5699 5687 5695 5702 5699 5695 5693 5687 5683 5681 5679 5672 5666 5661 5656 5654 5651 5646 5642 5637 5631 5624 5622 5616 5610 5605 5602 5599 5596
5653 5653 5649 5653 5654 5686 5717 5702 5698 5680 5701 5727 5720 5714 5705 5688 5694 5698 5694 5691 5689 5686 5683 5679 5672 5669 5667 5662 5653 5648 5648 5646 5645 5639 5632 5625 5619 5612 5608 5604 5600 5596 5591 5587
5663 5648 5644 5650 5649 5660 5717 5687 5687 5716 5718 5715 5708 5707 5698 5695 5692 5687 5687 5685 5683 5679 5676 5671 5665 5663 5660 5656 5646 5643 5643 5643 5639 5632 5627 5623 5616 5609 5603 5598 5593 5588 5585 5583
5670 5695 5678 5677 5687 5705 5711 5716 5711 5709 5707 5705 5697 5693 5688 5685 5682 5680 5680 5679 5678 5675 5673 5669 5664 5659 5656 5652 5643 5638 5639 5636 5630 5623 5616 5613 5611 5605 5598 5591 5584 5578 5574 5570
5680 5698 5684 5688 5706 5700 5696 5698 5698 5696 5694 5696 5690 5682 5676 5674 5675 5675 5676 5672 5671 5668 5666 5664 5660 5656 5651 5649 5645 5639 5633 5628 5620 5614 5613 5607 5601 5595 5590 5585 5578 5574 5565 5564
5696 5687 5679 5686 5695 5700 5690 5680 5681 5686 5688 5683 5678 5673 5670 5668 5671 5668 5669 5668 5665 5662 5661 5659 5656 5650 5648 5645 5640 5634 5627 5619 5610 5606 5602 5597 5590 5582 5576 5572 5567 5562 5562 5555
5686 5680 5669 5685 5689 5686 5689 5682 5684 5677 5672 5671 5669 5669 5667 5663 5665 5661 5659 5659 5656 5655 5652 5651 5650 5645 5641 5638 5633 5626 5621 5612 5604 5597 5591 5583 5576 5571 5563 5557 5555 5550 5546 5544